Weather History for Newberry, MI

Change the Weather History Date:

Saturday, August 23, 2014

  Actual Average Record
Temperature  
Mean Temperature 68 °F -  
Max Temperature 76 °F 70 °F 95 °F (1947)
Min Temperature 59 °F 51 °F 38 °F (1920)
Cooling Degree Days 2    
Growing Degree Days 18 (Base 50)    
Moisture  
Dew Point 62 °F    
Average Humidity 83    
Maximum Humidity 99    
Minimum Humidity 66    
Precipitation  
Precipitation 0.00 in - - ()
Sea Level Pressure  
Sea Level Pressure 30.09 in    
Wind  
Wind Speed 4 mph (ESE)    
Max Wind Speed 9 mph    
Max Gust Speed 16 mph    
Visibility 8 miles    
Events      
Averages and records for this station are not official NWS values.
T = Trace of Precipitation, MM = Missing Value Source: NWS Daily Summary

Daily Weather History Graph

Daily Weather History Graph

Search for Another Location

Airport:

Trip Planner

Search our weather history database for the weather conditions in past years. The results will help you decide how hot, cold, wet, or windy it might be!

Date:

Astronomy

Aug. 23, 2014 Rise Set
Actual Time 6:50 AM EDT 8:37 PM EDT
Civil Twilight 6:18 AM EDT 9:09 PM EDT
Nautical Twilight 5:39 AM EDT 9:47 PM EDT
Astronomical Twilight 4:56 AM EDT 10:30 PM EDT
Moon 5:04 AM EDT (8/23) 7:22 PM EDT (8/23)
Length of Visible Light 14h 50m
Length of Day
13h 46m
Waning Crescent, 3% of the Moon is Illuminated
Aug 23
Waning Crescent
Aug 25
New
Sep 2
First Quarter
Sep 8
Full
Sep 15
Last Quarter

Hourly Weather History & Observations

Time (EDT) Temp. Dew Point Humidity Pressure Visibility Wind Dir Wind Speed Gust Speed Precip Events Conditions
12:15 AM 64.4 °F 62.6 °F 94% 30.06 in 10.0 mi SE 4.6 mph - N/A   Overcast
12:34 AM 63.9 °F 62.1 °F 94% 30.06 in 7.0 mi SSW 4.6 mph - N/A   Mostly Cloudy
12:54 AM 63.5 °F 61.7 °F 94% 30.06 in 7.0 mi Calm Calm - N/A   Mostly Cloudy
1:15 AM 64.2 °F 61.9 °F 92% 30.06 in 10.0 mi Calm Calm - N/A   Overcast
1:34 AM 64.4 °F 61.7 °F 91% 30.06 in 7.0 mi SSW 5.8 mph - N/A   Overcast
1:54 AM 64.4 °F 61.7 °F 91% 30.07 in 7.0 mi Calm Calm - N/A   Overcast
2:15 AM 63.5 °F 61.7 °F 94% 30.06 in 7.0 mi East 3.5 mph - N/A   Overcast
2:34 AM 63.0 °F 61.2 °F 94% 30.06 in 7.0 mi SSE 3.5 mph - N/A   Overcast
2:54 AM 62.8 °F 61.0 °F 94% 30.06 in 7.0 mi Calm Calm - N/A   Overcast
3:14 AM 62.6 °F 61.0 °F 94% 30.07 in 7.0 mi Calm Calm - N/A   Overcast
3:34 AM 62.2 °F 61.0 °F 96% 30.07 in 5.0 mi ENE 3.5 mph - N/A   Overcast
3:54 AM 61.9 °F 60.8 °F 96% 30.07 in 5.0 mi East 3.5 mph - N/A   Overcast
4:14 AM 61.7 °F 60.6 °F 96% 30.07 in 7.0 mi Calm Calm - N/A   Overcast
4:35 AM 61.3 °F 60.3 °F 96% 30.07 in 5.0 mi SSE 3.5 mph - N/A   Overcast
5:14 AM 59.9 °F 59.4 °F 98% 30.07 in 4.0 mi WNW 4.6 mph - N/A   Overcast
5:34 AM 60.1 °F 59.9 °F 99% 30.07 in 4.0 mi Calm Calm - N/A   Overcast
5:54 AM 61.0 °F 60.3 °F 97% 30.07 in 5.0 mi Calm Calm - N/A   Overcast
6:15 AM 60.8 °F 59.9 °F 97% 30.08 in 5.0 mi SSE 4.6 mph - N/A   Overcast
6:34 AM 60.8 °F 60.1 °F 97% 30.08 in 5.0 mi Calm Calm - N/A   Overcast
7:15 AM 60.1 °F 59.7 °F 99% 30.08 in 2.5 mi Calm Calm - N/A   Overcast
7:34 AM 61.0 °F 60.3 °F 97% 30.09 in 4.0 mi Calm Calm - N/A   Overcast
7:54 AM 62.8 °F 61.0 °F 94% 30.09 in 7.0 mi Calm Calm - N/A   Overcast
8:15 AM 63.5 °F 61.2 °F 92% 30.09 in 10.0 mi SSE 3.5 mph - N/A   Overcast
8:34 AM 63.9 °F 61.5 °F 92% 30.09 in 10.0 mi Calm Calm - N/A   Overcast
8:54 AM 64.9 °F 62.2 °F 91% 30.09 in 7.0 mi SE 4.6 mph - N/A   Overcast
9:14 AM 65.8 °F 62.6 °F 89% 30.09 in 10.0 mi ESE 5.8 mph - N/A   Overcast
9:34 AM 66.6 °F 63.0 °F 88% 30.09 in 10.0 mi East 5.8 mph - N/A   Overcast
9:55 AM 67.6 °F 63.5 °F 87% 30.09 in 10.0 mi East 4.6 mph - N/A   Overcast
10:14 AM 69.4 °F 64.4 °F 84% 30.10 in 10.0 mi East 4.6 mph - N/A   Overcast
10:35 AM 73.4 °F 64.8 °F 74% 30.10 in 10.0 mi East 8.1 mph - N/A   Overcast
10:54 AM 74.5 °F 64.9 °F 72% 30.11 in 10.0 mi East 6.9 mph - N/A   Overcast
11:14 AM 73.6 °F 64.9 °F 74% 30.11 in 10.0 mi SE 5.8 mph - N/A   Overcast
11:35 AM 74.1 °F 64.9 °F 73% 30.11 in 10.0 mi East 4.6 mph - N/A   Overcast
11:54 AM 74.8 °F 64.6 °F 70% 30.11 in 10.0 mi East 8.1 mph - N/A   Mostly Cloudy
12:15 PM 76.3 °F 64.6 °F 67% 30.11 in 10.0 mi East 4.6 mph - N/A   Scattered Clouds
12:34 PM 76.3 °F 64.4 °F 67% 30.10 in 10.0 mi SE 3.5 mph - N/A   Mostly Cloudy
12:54 PM 74.8 °F 64.2 °F 69% 30.10 in 10.0 mi East 5.8 mph - N/A   Mostly Cloudy
1:14 PM 75.4 °F 64.2 °F 68% 30.10 in 10.0 mi ESE 6.9 mph - N/A   Overcast
1:34 PM 75.0 °F 64.9 °F 71% 30.11 in 10.0 mi ESE 8.1 mph - N/A   Mostly Cloudy
1:55 PM 74.7 °F 64.0 °F 69% 30.11 in 10.0 mi SE 9.2 mph - N/A   Mostly Cloudy
2:14 PM 75.4 °F 64.2 °F 68% 30.11 in 10.0 mi ESE 5.8 mph - N/A   Mostly Cloudy
2:34 PM 74.7 °F 64.4 °F 70% 30.11 in 7.0 mi North - - N/A   Mostly Cloudy
2:55 PM 75.2 °F 64.2 °F 69% 30.11 in 10.0 mi East 5.8 mph 16.1 mph N/A   Mostly Cloudy
3:14 PM 75.4 °F 64.2 °F 68% 30.11 in 10.0 mi North - - N/A   Mostly Cloudy
3:34 PM 75.7 °F 63.9 °F 66% 30.10 in 10.0 mi SE 6.9 mph - N/A   Overcast
3:55 PM 75.0 °F 64.0 °F 69% 30.10 in 7.0 mi East 6.9 mph - N/A   Overcast
4:14 PM 76.5 °F 64.2 °F 66% 30.11 in 10.0 mi SE 9.2 mph - N/A   Overcast
4:34 PM 76.8 °F 64.8 °F 66% 30.11 in 7.0 mi SSE 8.1 mph - N/A   Overcast
4:54 PM 75.7 °F 64.4 °F 68% 30.11 in 10.0 mi ESE 6.9 mph - N/A   Mostly Cloudy
5:14 PM 74.8 °F 64.4 °F 70% 30.10 in 10.0 mi ESE 8.1 mph - N/A   Mostly Cloudy
5:35 PM 75.4 °F 64.6 °F 69% 30.10 in 10.0 mi SE 8.1 mph - N/A   Overcast
5:54 PM 75.2 °F 64.4 °F 69% 30.10 in 10.0 mi ESE 8.1 mph - N/A   Mostly Cloudy
6:14 PM 74.3 °F 63.3 °F 68% 30.10 in 10.0 mi North - - N/A   Mostly Cloudy
6:34 PM 73.9 °F 63.5 °F 70% 30.10 in 10.0 mi SE 9.2 mph - N/A   Mostly Cloudy
6:54 PM 73.4 °F 63.5 °F 71% 30.10 in 10.0 mi East 8.1 mph - N/A   Scattered Clouds
7:15 PM 72.7 °F 63.5 °F 73% 30.10 in 10.0 mi ESE 9.2 mph - N/A   Clear
7:34 PM 71.6 °F 63.0 °F 74% 30.10 in 10.0 mi North - - N/A   Clear
7:54 PM 70.3 °F 63.0 °F 77% 30.10 in 7.0 mi ESE 5.8 mph - N/A   Clear
8:14 PM 69.1 °F 62.6 °F 80% 30.10 in 10.0 mi ESE 6.9 mph - N/A   Clear
8:34 PM 68.2 °F 61.9 °F 80% 30.10 in 7.0 mi ESE 6.9 mph - N/A   Clear
8:54 PM 66.9 °F 61.7 °F 83% 30.11 in 10.0 mi ESE 6.9 mph - N/A   Clear
9:15 PM 66.4 °F 61.5 °F 84% 30.11 in 10.0 mi ESE 9.2 mph - N/A   Clear
9:34 PM 65.5 °F 61.3 °F 86% 30.11 in 10.0 mi East 6.9 mph - N/A   Clear
9:54 PM 65.1 °F 61.3 °F 88% 30.11 in 10.0 mi East 8.1 mph - N/A   Clear
10:15 PM 64.6 °F 61.0 °F 88% 30.11 in 10.0 mi East 6.9 mph - N/A   Clear
10:34 PM 63.9 °F 61.0 °F 90% 30.12 in 10.0 mi South 5.8 mph - N/A   Clear
10:54 PM 62.6 °F 60.3 °F 92% 30.12 in 10.0 mi SW 5.8 mph - N/A   Clear
11:14 PM 61.9 °F 59.9 °F 93% 30.13 in 10.0 mi ESE 4.6 mph - N/A   Clear
11:34 PM 61.0 °F 59.4 °F 94% 30.13 in 10.0 mi East 5.8 mph - N/A   Clear
11:54 PM 60.6 °F 59.2 °F 95% 30.13 in 10.0 mi ENE 4.6 mph - N/A   Clear